Regional Weather Roundup
Issued by NWS

Home | Current Version | Previous Version | Text Only | Print | Product List | Glossary On
Versions: 1 2 3 4 5 6 7 8 9 10 11 12 13 14 15 16 17 18 19 20 21 22 23 24 25 26 27 28 29 30 31 32 33 34 35 36 37 38 39 40 41 42 43 44 45 46 47 48 49 50
000
ASHW40 PHFO 292010
RWRHI

WEATHER ROUNDUP FOR HAWAII
NATIONAL WEATHER SERVICE HONOLULU HI
1000 AM HST SUN MAR 29 2015

THIS IS AN AUTOMATED REPORT THAT HAS NOT BEEN QUALITY CONTROLLED.

NOTE..."FAIR" INDICATES FEW OR NO CLOUDS BELOW 12,000 FEET WITH NO
SIGNIFICANT WEATHER AND/OR OBSTRUCTIONS TO VISIBILITY.

* - THESE SITES REPORT LIMITED FIELDS

HIZ001>004-292100-
KAUAI-NIIHAU-

CITY           SKY/WX    TMP DP  RH WIND       PRES   REMARKS
LIHUE APT      PTSUNNY   79  68  69 E14       30.20S
PORT ALLEN*      N/A     77 N/A N/A E15G22      N/A
POIPU*           N/A     79 N/A N/A NE9G20      N/A
PRINCEVILLE*     N/A     75 N/A N/A MISG        N/A
KOKOLE POINT*  NOT AVBL
MOLOAA DAIRY*  NOT AVBL
WAIMEA HTS*    NOT AVBL
PUU OPAE*      NOT AVBL
PUU LUA*       NOT AVBL
MAKAHA RIDGE*  NOT AVBL
$$

HIZ005>011-292100-
OAHU-

CITY           SKY/WX    TMP DP  RH WIND       PRES   REMARKS
HONOLULU       LGT RAIN  73  69  87 E6        30.17S
KALAELOA       PTSUNNY   78  66  66 E6        30.18S
KANEOHE MCB    RAIN      74  70  87 NE6       30.16S
WHEELER FIELD  FAIR      74  67  76 SE9       30.19R
BELLOWS*       NOT AVBL
KAHUKU*        NOT AVBL
WHEELER*       NOT AVBL
WAIANAE HARBOR NOT AVBL
DILLINGHAM*      N/A     81  72  74 MISG        N/A
KAHUKU TRN*      N/A     70  64  83 E10G22      N/A
KAWAILOA*        N/A     70  66  88 E8G16       N/A
KII*             N/A     75  68  78 NE17        N/A
MAKUA RANGE*     N/A     81  68  65 NE9G18      N/A
OAHU FOREST NW NOT AVBL
SCHOFIELD BRK*   N/A     66  59  77 MISG        N/A
SCHOFIELD S*   NOT AVBL
WAIANAE VLY*   NOT AVBL
KUAOKALA*      NOT AVBL
HONOULIUULI*   NOT AVBL
MOKUOLOE IS*   NOT AVBL
PALEHUA*       NOT AVBL
WAIAWA PHB*    NOT AVBL
$$

HIZ012>013-292100-
MOLOKAI-

CITY           SKY/WX    TMP DP  RH WIND       PRES   REMARKS
MOLOKAI AIRPT  MOSUNNY   79  66  64 NE13G18   30.18S
KALAUPAPA      NOT AVBL
MAKAPULAPAI*   NOT AVBL
MOLOKAI 1*     NOT AVBL
PUU ALII*      NOT AVBL
$$

HIZ016-292100-
KAHOOLAWE-

CITY           SKY/WX    TMP DP  RH WIND       PRES   REMARKS
KAHOOLAWE*     NOT AVBL
HAKIOAWA*      NOT AVBL
HONOKANAIA*      N/A     78  66  66 NE16G26   30.17F
KANELOA*         N/A     73  68  83 MISG      29.39R
KEALIALALO*    NOT AVBL
LUA MAKIKA*    NOT AVBL
$$

HIZ014>015-292100-
LANAI-

CITY           SKY/WX    TMP DP  RH WIND       PRES   REMARKS
LANAI CITY       N/A    N/A N/A N/A MISG        N/A
LANAI 1*       NOT AVBL
$$

HIZ017>028-292100-
MAUI-

CITY           SKY/WX    TMP DP  RH WIND       PRES   REMARKS
KAHULUI        PTSUNNY   79  66  64 E13G18    30.17S
KAPALUA-W MAUI LGT RAIN  75  66  73 E13G24    30.17
HANA AIRPORT   MOSUNNY   77  68  73 NE6       30.22S
HANA*          NOT AVBL
HALEAKALA SUMM   N/A     55   7  14 SE17        N/A
MAALAEA BAY*   NOT AVBL
HALEAKALA*     NOT AVBL
KAUPO GAP*     NOT AVBL
KULA 1*          N/A     58  49  73 W5          N/A
$$

HIZ023>026-292100-
BIG ISLAND OF HAWAII COAST AND LOWER SLOPES-

CITY           SKY/WX    TMP DP  RH WIND       PRES   REMARKS
KAILUA KONA    PTSUNNY   80  66  62 SW8       30.13S
HILO           MOSUNNY   79  65  62 SE5       30.18S
HONOKAA*       NOT AVBL
KAWAIHAE MWT*  NOT AVBL
KAWAIHAE*        N/A     79 N/A N/A W8          N/A
SOUTH POINT*   NOT AVBL
UPOLU AIRPORT* NOT AVBL
KAMUELA*       MOCLDY    73  61  64 NE14      30.24S
HAKALAU*         N/A    N/A N/A N/A S6G12       N/A
KALOKO-HONOKO* NOT AVBL
PALI 2*          N/A     70  57  64 NE13G20     N/A
KEALAKOMO*       N/A     82  63  51 NE14G26     N/A
KAUPULEHU*     NOT AVBL
KAPAPALA*        N/A     76  62  62 E8G18       N/A
LOWER KAHUKU*  NOT AVBL
PUHE CS*       NOT AVBL
PUHO CS*       NOT AVBL
PTA KEAMUKU*     N/A     70  57  64 CALM        N/A
WAIKOLOA*      NOT AVBL
$$

HIZ027>028-292100-
BIG ISLAND OF HAWAII INTERIOR AND SUMMMITS-

CITY           SKY/WX    TMP DP  RH WIND       PRES   REMARKS
BRADSHAW FIELD SUNNY     65  44  47 W8        30.42R
MK VISITOR CEN NOT AVBL
MAUNA KEA*       N/A     45  -4  13 S5          N/A
MAUNA LOA*       N/A     55   0  10 MISG        N/A
MAUNA LOA 1*   NOT AVBL
PTA KIPUKA*      N/A     66  46  48 NW5G12      N/A
PTA RANGE 17*    N/A     63  50  63 NW7G13      N/A
PTA WEST*        N/A     66  54  63 NW7         N/A
NENE CABIN*    NOT AVBL
AHUMOA*        NOT AVBL
PTA PORTABLE*  NOT AVBL
PUU MALI*      NOT AVBL
$$

HIC003-292100-
NORTHWEST ISLANDS-

CITY           SKY/WX    TMP DP  RH WIND       PRES   REMARKS
MIDWAY ISLAND  CLOUDY    64  46  52 NE10      30.44S
MIDWAY NOS*    NOT AVBL
FRENCH FRIGATE NOT AVBL
$$

PHZ110>124-180-292100-
BUOY REPORTS

STATION/POSITION TIME  TEMP    WIND        PRES    WAVE   SWELL
                       AIR SEA DIR/SP/G            HT/PER HT/DIR
                 (UTC) (F)     (DEG/KT/KT) (MB)    (FT/S) (FT/D)
BUOY 51001       NOT AVBL
BUOY 51101       2000   71 73   50/ 14/ 16 1024.2R   8/15   7/300
BUOY 51100       2000   73     120/ 14       N/A
BUOY 51003       1900   76 77   40/ 12/ 16 1021.6R   6/ 9   7
BUOY 51004       1943   77 77   70/ 16/ 19 1020.1F   9/ 9   7/ 90
BARBERS PT BUOY  NOT AVBL
WAIMEA BAY BUOY  2000      76                N/A     4/12   2/320
KAILUA BAY BUOY  2000      76                N/A     6/ 8   2
LANAI BUOY       1900      78                N/A     3/14   2/170
BARBERS PT 2     2000      77                N/A     5/17   3/160
PAUWELA MAUI     2000      75                N/A     6/ 8   2/ 60
HILO             2000      77                N/A     8/ 9   2/100
KANEOHE BAY BUOY 2000      76                N/A     5/ 8   2/360
HANALEI KAUAI    2000      76                N/A     6/15   3/310
KAHULUI HARBOR   2000   74 77  360/  8/ 11 1021.4F
HONOLULU HARBOR  2000   77 76   60/  6/  8 1021.7F
KILO NALU        NOT AVBL
HILO HARBOR      2000   82 76  140/  5/  7 1021.6S
MOKUOLOE         2000   75 76   60/  9/ 12 1022.1S
NAWILIWILI       2000   75 77   70/ 13/ 15 1022.1S
WHOTS BUOY       NOT AVBL
BUOY 51028       NOT AVBL
$$

......................KEY........................................
  SKY/WX - SKY CONDITIONS/PRESENT WEATHER
  TMP    - TEMPERATURE IN FAHRENHEIT
  DWPT   - DEWPOINT IN FAHRENHEIT
  RH     - RELATIVE HUMIDITY IN PERCENT
  WIND   - DIRECTION AND SPEED /MPH FOR ISLANDS...KTS FOR BUOYS/
  PRES   - MEAN SEA LEVEL PRESSURE IN INCHES OF HG
  VSB    - VISIBILITY IN MILES
  HX     - HEAT INDEX
  WCI    - WIND CHILL INDEX
  VRB    - VARIABLE WIND DIRECTION
  N/A    - NOT AVAILABLE


USA.gov is the U.S. government's official web portal to all federal, state and local government web resources and services.